Temperature
17 17 17 17 17 16 16 15 14 14 13 12 11 11 11 11 10 10 10 10 9 9 9 9 9 9 8 8 8 7 7 7 7 7 7 7 7 7 7 7 6 6 6
16 16 17 17 16 16 16 15 14 14 13 12 12 11 11 11 10 10 10 10 10 9 9 9 9 9 8 8 8 7 7 7 6 6 6 6 7 6 6 6 6 6 6
16 16 16 16 16 16 15 15 14 14 13 12 12 11 11 10 10 10 10 10 10 9 9 9 9 9 8 8 8 7 7 6 6 6 5 5 6 5 5 5 5 5 5
16 15 15 16 16 16 15 15 14 14 13 12 12 11 11 10 10 10 10 10 9 9 9 9 9 8 8 8 8 7 7 6 6 5 5 4 4 3 4 4 4 4 4
15 14 15 16 16 15 15 14 14 13 13 12 11 11 10 10 10 10 10 10 9 9 9 9 9 8 8 8 7 7 7 6 6 5 5 4 3 3 2 3 3 3 4
14 14 14 15 15 15 14 14 14 13 13 12 11 11 10 10 10 10 10 10 9 9 9 9 9 8 8 7 7 7 6 6 6 5 4 4 3 2 2 2 2 2 3
13 13 13 14 14 14 14 14 13 13 12 12 11 11 10 10 10 10 10 10 9 9 9 9 8 8 8 7 7 6 6 6 5 5 4 4 3 3 2 1 1 1 2
13 13 13 14 14 14 14 13 13 13 12 12 11 11 11 10 10 10 10 10 9 9 9 9 8 8 7 7 6 6 6 5 5 5 4 4 3 3 2 1 0 -0 0
13 13 13 13 14 14 14 13 13 13 12 12 11 11 11 10 10 10 10 10 9 9 9 8 8 7 7 7 6 6 5 5 5 4 4 4 3 3 2 1 0 -1 -1
13 13 13 13 13 14 13 13 13 13 12 12 11 11 11 11 10 10 10 10 9 9 8 8 7 7 7 6 6 5 5 5 4 4 4 3 3 2 2 1 1 -1 -2
13 13 13 13 13 13 13 13 12 12 12 12 11 11 11 10 10 10 10 9 9 8 8 8 7 7 6 6 5 5 5 4 4 3 3 3 2 2 1 1 0 -0 -1
15 14 13 13 13 13 13 13 12 12 12 12 11 11 10 10 10 10 9 9 8 8 8 7 7 6 6 5 5 4 4 4 3 3 3 2 2 1 1 0 -0 -1 -2
15 14 14 14 14 13 13 13 12 12 12 11 11 11 10 10 10 9 9 8 8 8 7 7 6 6 5 5 4 4 4 3 3 2 2 2 1 1 0 -0 -1 -1 -2
15 15 15 14 14 13 13 13 12 12 12 11 11 10 10 10 9 9 8 8 8 7 7 6 6 6 5 5 4 4 3 3 2 2 2 1 1 0 -0 -1 -1 -2 -2
15 15 15 14 14 13 13 13 12 12 11 11 10 10 10 9 9 8 8 8 7 7 6 6 6 5 5 4 4 3 3 2 2 2 1 1 1 0 -0 -1 -2 -2 -3
14 15 15 14 14 14 13 13 12 12 11 11 10 10 9 9 8 8 7 7 7 6 6 5 5 5 4 4 3 3 2 2 1 1 1 0 0 -0 -1 -1 -2 -2 -3
15 15 15 15 14 14 13 13 12 12 11 11 10 10 9 8 8 7 7 7 6 6 5 5 5 4 4 3 3 2 2 1 1 0 0 -0 -0 -1 -1 -1 -2 -2 -3
15 15 15 14 14 13 13 12 12 11 11 10 10 9 9 8 7 7 6 6 6 5 5 4 4 4 3 3 2 2 1 1 0 0 -0 -1 -1 -1 -2 -2 -3 -3 -3
14 14 14 14 13 13 12 12 11 11 10 10 9 9 8 7 7 6 6 5 5 5 4 4 3 3 3 2 2 1 1 0 -0 -0 -1 -1 -1 -2 -2 -3 -4 -4 -4
14 14 13 13 12 12 12 11 11 10 10 9 9 8 7 7 6 6 5 5 4 4 4 3 3 2 2 2 1 1 -0 -1 -1 -1 -2 -2 -2 -2 -3 -4 -4 -5 -5
13 13 13 12 12 11 11 11 10 10 9 8 8 7 7 6 6 5 5 4 4 3 3 2 2 2 2 1 1 0 -1 -1 -2 -2 -2 -3 -3 -3 -4 -4 -5 -5 -5
12 12 12 11 11 11 10 10 9 9 8 8 7 6 6 5 5 4 4 3 3 3 2 2 1 1 1 0 0 -0 -1 -2 -2 -3 -3 -3 -4 -4 -5 -5 -5 -5 -5
12 11 11 11 10 10 9 9 9 8 7 7 6 6 5 5 4 4 3 3 2 2 1 1 0 0 -0 -1 -1 -1 -2 -2 -3 -3 -3 -4 -4 -5 -5 -5 -5 -6 -6
11 10 10 10 9 9 8 8 7 7 7 6 5 5 4 4 4 3 3 2 2 1 1 0 -0 -1 -1 -2 -2 -2 -3 -3 -3 -4 -4 -5 -5 -5 -5 -6 -6 -6 -7
10 10 9 9 8 8 8 7 7 6 6 5 5 4 4 3 3 2 2 1 1 1 -0 -1 -1 -2 -2 -2 -3 -3 -4 -4 -5 -5 -5 -6 -6 -6 -6 -6 -7 -7 -7
9 9 8 8 7 7 6 6 5 5 5 4 4 3 3 2 2 1 1 1 0 -0 -1 -1 -2 -2 -2 -3 -3 -4 -5 -5 -6 -6 -6 -6 -6 -7 -7 -7 -7 -7 -8
Wind_Speed
13 10 9 10 11 12 15 17 17 18 15 12 11 10 9 8 7 7 9 10 10 9 8 6 6 5 5 5 4 4 5 4 4 6 7 7 6 5 4 4 4 4 5
11 11 10 10 12 13 15 16 17 17 17 14 12 9 9 7 6 6 8 9 9 9 7 7 5 5 4 4 4 4 4 4 3 4 6 5 4 1 4 5 6 6 6
13 12 12 11 12 13 15 14 17 17 17 15 11 8 6 5 5 7 6 7 8 8 7 6 5 5 4 4 4 4 5 4 3 3 4 4 4 6 5 5 6 7 7
12 12 12 12 12 12 12 14 15 16 16 16 14 15 11 10 9 8 7 7 8 8 7 7 6 5 4 4 4 3 4 4 4 3 4 6 5 5 6 5 6 8 9
10 12 13 12 11 11 11 12 14 15 16 16 16 16 13 10 8 8 9 8 7 7 7 7 6 5 4 4 4 4 4 4 5 5 4 5 6 8 7 9 9 9 8
8 11 11 11 11 11 11 12 14 14 15 15 15 15 15 12 12 11 10 8 6 6 7 7 6 6 5 5 4 4 5 5 5 5 5 6 6 6 7 9 12 11 10
8 11 13 13 13 13 13 13 14 14 15 15 15 14 14 14 14 12 11 9 7 6 8 7 6 6 5 5 4 4 5 6 6 6 6 6 7 7 8 10 11 12 11
8 11 13 13 13 14 14 14 15 14 15 14 14 13 13 10 10 11 10 10 8 7 8 8 7 6 6 5 5 4 5 5 6 7 8 7 7 7 8 8 9 11 10
7 10 12 13 13 14 14 15 15 14 14 14 13 13 12 11 10 10 9 8 7 7 8 8 7 6 6 6 5 5 6 6 7 7 8 8 7 7 8 8 8 8 9
6 10 12 13 13 13 13 14 14 15 14 14 13 10 12 11 10 10 10 9 9 8 8 7 7 6 6 6 6 6 6 7 7 7 8 9 8 8 8 8 9 10 11
5 8 10 12 12 12 13 13 14 14 14 14 13 13 12 11 11 10 10 10 9 9 8 8 7 7 7 7 7 7 7 8 9 8 9 10 10 9 8 9 9 10 11
4 7 10 11 12 13 14 14 14 14 14 14 13 13 12 12 11 11 11 10 10 9 8 8 8 7 7 7 8 8 8 9 10 10 11 11 9 11 10 10 11 11 12
4 7 9 11 13 14 14 15 15 15 14 14 14 13 13 13 13 12 11 10 9 9 8 8 8 8 8 8 8 9 9 10 11 11 12 12 12 13 11 12 12 11 12
5 7 9 11 12 13 14 15 15 15 14 14 14 14 14 13 12 11 10 10 9 9 9 8 8 8 8 8 9 9 10 11 12 12 12 13 13 14 14 12 14 13 13
7 8 9 10 11 13 14 14 15 14 14 15 15 14 13 12 11 11 10 9 9 9 8 8 8 8 8 8 8 8 10 11 12 13 13 14 15 17 16 13 13 13 13
8 8 9 10 12 13 13 14 14 14 14 15 14 13 12 12 11 11 10 10 9 9 9 9 9 9 8 10 13 12 11 12 13 14 14 14 16 18 20 22 22 20 17
8 8 8 10 10 11 12 13 13 13 14 14 13 13 12 12 11 10 10 10 10 9 9 9 10 10 10 12 14 15 13 14 14 15 14 13 13 16 15 17 20 21 23
8 7 6 7 8 9 10 10 11 12 13 13 12 12 12 12 11 11 11 10 9 9 9 9 10 10 11 13 15 15 14 15 15 15 15 16 16 15 15 14 15 17 18
6 4 4 5 6 7 9 10 10 11 11 12 12 12 11 11 11 11 11 9 9 9 9 9 10 11 12 13 15 15 12 13 15 15 15 16 17 19 20 17 17 18 17
3 2 3 5 6 7 9 10 10 10 11 11 10 10 10 10 11 10 9 8 8 8 8 9 10 11 12 12 14 15 10 12 13 13 14 17 19 20 21 17 16 17 17
3 4 5 5 5 7 8 9 9 9 8 8 8 8 9 9 9 8 8 7 7 8 9 10 10 11 12 13 15 16 11 12 13 12 12 12 18 20 22 21 17 20 19
5 5 5 5 5 6 7 7 7 6 6 7 7 7 7 7 6 7 7 7 7 8 9 10 10 10 10 12 14 16 17 17 15 14 13 13 19 21 23 20 20 24 21
5 5 5 5 5 5 5 6 5 5 6 6 6 6 6 6 6 7 7 7 7 7 8 8 9 10 9 10 15 17 18 19 15 14 18 21 23 23 20 21 23 19 13
5 5 6 6 5 4 4 4 5 5 6 5 5 5 5 5 6 5 6 6 7 7 8 9 10 10 10 9 9 9 11 14 14 14 17 22 23 19 18 18 15 12 11
5 5 5 5 5 5 4 4 5 5 5 4 4 4 4 5 6 6 7 8 9 9 9 9 10 11 12 12 13 13 11 11 13 14 13 12 12 11 11 11 11 10 10
6 5 5 5 5 5 4 4 4 4 4 4 4 3 4 5 5 6 7 9 12 13 16 17 16 14 17 20 20 21 22 23 23 18 13 14 13 12 12 11 10 10 9
Wind_Direction
233 215 209 203 197 194 193 190 188 189 186 185 185 186 189 184 184 185 187 190 191 193 197 203 210 213 229 239 246 259 269 277 298 298 299 293 281 287 280 277 283 286 291
225 209 202 195 193 190 189 187 186 186 186 187 187 188 182 180 176 170 181 186 189 189 192 200 205 209 221 228 234 248 272 279 286 299 309 309 290 265 271 283 285 288 286
224 207 197 192 188 188 187 185 184 184 186 183 175 162 156 157 170 175 176 179 183 183 186 192 196 199 212 225 229 237 255 271 267 273 289 300 305 317 283 277 281 283 287
224 207 195 190 186 184 180 182 181 183 184 180 181 180 183 185 187 179 172 169 175 175 176 180 187 193 206 214 218 226 243 256 266 262 255 266 284 289 300 285 280 286 290
220 205 196 188 180 174 175 177 177 180 182 185 187 188 189 184 173 167 167 168 169 173 175 179 183 189 198 206 209 218 232 246 260 265 265 264 264 260 270 289 296 293 286
215 202 189 179 173 169 170 172 175 178 181 185 187 189 185 175 169 172 173 173 170 172 177 179 184 190 196 202 212 224 235 246 255 260 260 262 264 267 266 279 292 296 296
207 193 184 180 176 173 173 174 176 177 180 184 187 189 186 182 181 180 181 178 178 181 182 183 189 194 198 204 214 227 239 246 252 256 261 262 263 271 271 276 286 291 295
204 195 190 185 180 178 178 179 180 180 181 184 186 186 184 184 184 184 182 185 186 185 180 185 193 198 200 207 218 232 240 247 250 257 260 261 263 262 261 267 282 291 290
202 196 191 190 186 183 184 184 183 181 182 184 183 184 182 182 179 178 180 182 180 174 179 186 193 199 205 214 224 237 244 249 253 258 259 260 262 261 261 261 261 269 286
201 197 194 193 191 189 187 187 188 185 183 183 183 182 182 181 177 175 178 179 176 174 180 189 197 203 211 219 229 242 248 253 256 259 262 263 264 264 261 259 259 257 265
210 202 198 195 192 189 188 189 189 187 185 185 184 182 180 178 178 180 181 179 178 181 187 194 201 209 218 227 235 243 250 255 260 259 261 264 266 267 265 263 262 261 262
215 205 200 195 193 193 192 192 192 191 189 186 185 184 180 178 182 183 182 181 184 189 194 198 207 216 224 232 240 248 251 256 261 264 265 266 267 266 267 266 265 265 266
220 204 200 200 200 199 198 197 196 195 190 186 186 184 183 185 188 186 183 185 189 193 197 204 214 222 229 236 243 250 256 259 263 265 265 267 268 269 268 268 269 270 271
235 216 209 207 205 203 201 200 199 196 190 188 190 191 190 190 190 187 186 189 193 198 204 212 220 227 233 239 244 251 257 262 263 263 263 265 265 267 270 271 271 273 274
242 226 221 215 208 205 204 202 200 195 191 191 194 196 193 190 188 188 190 192 198 204 208 216 225 230 234 237 239 248 256 261 265 264 263 262 261 264 266 268 270 272 272
251 235 226 219 212 207 204 200 199 194 192 195 197 193 190 188 190 192 192 194 201 207 212 221 230 236 239 240 246 256 262 264 265 267 267 267 264 263 265 266 268 269 271
257 240 228 220 214 208 202 200 196 189 191 196 195 191 190 192 194 193 195 200 207 212 220 229 236 244 247 246 254 257 266 268 268 269 270 270 268 269 269 270 271 270 268
254 244 230 219 212 203 197 192 186 186 189 194 194 192 192 195 194 197 203 208 213 218 227 235 241 249 253 251 258 264 266 268 268 268 269 271 272 271 271 272 272 270 270
248 240 224 208 193 187 181 176 178 182 188 195 196 194 193 194 197 203 209 213 217 225 233 240 246 253 259 255 260 266 270 269 269 269 268 269 271 272 274 275 274 275 274
213 193 171 166 170 170 168 170 177 183 193 196 196 193 194 197 202 208 212 216 221 231 239 246 251 256 263 261 262 265 267 271 273 274 271 267 268 273 275 274 275 276 278
149 144 144 148 153 157 164 172 179 191 193 188 188 190 195 202 207 210 214 218 225 236 245 253 257 259 262 265 263 263 264 269 275 276 275 272 273 274 276 275 274 275 281
139 140 138 132 137 153 165 172 182 179 172 175 183 191 198 200 205 212 219 225 231 242 251 259 265 264 263 261 263 263 265 270 274 276 277 276 277 278 279 278 276 279 283
142 141 138 130 133 153 168 171 165 158 165 174 185 192 197 203 209 217 224 231 236 245 255 261 266 270 269 265 263 268 271 272 273 275 277 281 283 284 282 278 279 281 279
149 145 143 141 141 149 159 159 153 160 167 179 188 194 205 215 221 224 227 233 240 248 255 262 267 273 273 272 271 272 276 275 275 278 281 283 282 279 276 278 279 273 270
150 151 153 149 147 149 151 148 153 162 173 185 196 208 218 228 235 238 239 242 245 247 252 261 266 272 274 274 275 279 280 280 279 284 282 280 280 276 272 271 269 267 265
150 150 151 149 148 151 151 153 161 171 180 196 212 223 233 241 247 255 262 247 249 258 258 262 266 269 271 279 281 282 282 284 285 285 279 278 278 277 278 277 275 270 266
Height
1499 1500 1501 1503 1505 1507 1510 1513 1517 1521 1524 1528 1531 1535 1538 1541 1543 1545 1547 1548 1549 1550 1551 1551 1551 1551 1551 1550 1549 1549 1547 1546 1544 1542 1540 1537 1535 1533 1531 1530 1529 1528 1526
1493 1494 1496 1498 1500 1502 1505 1508 1512 1516 1520 1523 1528 1531 1534 1537 1540 1542 1544 1545 1546 1547 1548 1548 1548 1548 1548 1547 1546 1546 1545 1543 1542 1540 1538 1536 1535 1531 1529 1528 1526 1525 1523
1486 1488 1490 1492 1495 1497 1500 1503 1507 1511 1516 1520 1524 1528 1531 1534 1536 1538 1540 1542 1543 1545 1545 1545 1545 1545 1545 1544 1543 1542 1542 1541 1539 1538 1538 1536 1533 1530 1527 1524 1523 1521 1519
1481 1483 1484 1487 1491 1494 1497 1500 1504 1508 1512 1515 1519 1523 1526 1529 1532 1535 1537 1539 1540 1541 1542 1542 1542 1542 1542 1541 1540 1539 1538 1537 1536 1535 1533 1533 1531 1529 1524 1522 1519 1517 1515
1476 1477 1480 1483 1487 1490 1493 1497 1500 1504 1508 1512 1515 1519 1523 1526 1529 1532 1534 1536 1537 1538 1538 1539 1539 1539 1538 1538 1537 1536 1535 1534 1533 1531 1530 1528 1527 1525 1523 1518 1515 1513 1510
1471 1473 1476 1479 1483 1487 1490 1494 1497 1501 1504 1508 1512 1516 1519 1522 1525 1528 1530 1532 1533 1534 1535 1535 1535 1535 1535 1534 1533 1532 1531 1530 1529 1527 1526 1524 1523 1521 1518 1514 1511 1508 1505
1468 1469 1472 1475 1479 1483 1487 1490 1494 1497 1501 1505 1509 1512 1516 1519 1522 1524 1526 1528 1529 1530 1531 1532 1532 1531 1531 1530 1529 1528 1527 1526 1525 1523 1521 1520 1518 1516 1513 1510 1506 1502 1499
1465 1466 1469 1473 1476 1480 1484 1488 1491 1494 1498 1502 1505 1509 1512 1515 1518 1520 1523 1524 1526 1527 1528 1528 1528 1528 1527 1526 1525 1524 1523 1522 1520 1518 1517 1515 1513 1510 1508 1505 1502 1497 1493
1462 1464 1467 1470 1474 1478 1481 1485 1488 1491 1495 1498 1502 1505 1508 1511 1514 1517 1519 1520 1522 1523 1524 1524 1524 1524 1523 1522 1521 1520 1519 1517 1515 1513 1512 1509 1507 1505 1502 1500 1497 1495 1489
1461 1463 1465 1468 1472 1475 1479 1482 1485 1488 1492 1495 1498 1502 1505 1508 1510 1513 1515 1516 1518 1519 1519 1520 1520 1519 1519 1518 1517 1515 1514 1512 1510 1508 1506 1504 1502 1499 1497 1494 1491 1488 1485
1460 1461 1463 1466 1469 1472 1475 1478 1482 1485 1488 1491 1495 1498 1501 1503 1506 1508 1510 1512 1513 1514 1515 1515 1515 1515 1514 1513 1512 1510 1509 1507 1505 1503 1501 1498 1496 1493 1491 1488 1485 1482 1479
1458 1459 1461 1463 1465 1468 1471 1474 1477 1481 1484 1487 1490 1494 1496 1499 1502 1504 1506 1507 1509 1510 1510 1510 1510 1510 1509 1508 1507 1505 1503 1501 1499 1497 1495 1492 1490 1487 1484 1481 1478 1475 1472
1456 1457 1458 1459 1461 1464 1467 1470 1473 1476 1479 1483 1486 1489 1491 1494 1497 1499 1501 1503 1504 1505 1505 1505 1505 1504 1504 1502 1501 1499 1498 1495 1493 1491 1488 1486 1483 1480 1478 1475 1472 1468 1465
1454 1454 1454 1455 1457 1459 1462 1465 1468 1471 1474 1477 1481 1483 1486 1489 1492 1494 1496 1498 1499 1500 1500 1500 1499 1499 1498 1496 1495 1493 1491 1489 1486 1484 1481 1479 1476 1474 1471 1468 1465 1462 1458
1450 1450 1450 1451 1453 1455 1457 1459 1462 1465 1468 1472 1475 1478 1481 1484 1487 1489 1491 1492 1493 1494 1494 1494 1493 1493 1491 1490 1488 1486 1484 1482 1479 1476 1474 1471 1469 1466 1463 1460 1457 1454 1451
1445 1445 1446 1447 1447 1449 1451 1454 1457 1460 1463 1466 1469 1473 1476 1478 1481 1483 1485 1487 1488 1488 1488 1488 1487 1486 1485 1484 1482 1480 1477 1474 1472 1469 1466 1463 1461 1458 1455 1452 1449 1447 1444
1440 1440 1441 1441 1443 1444 1446 1449 1451 1454 1458 1461 1464 1467 1470 1473 1475 1477 1479 1480 1481 1482 1482 1481 1481 1479 1478 1477 1475 1473 1470 1467 1464 1461 1458 1455 1452 1450 1446 1443 1440 1438 1435
1436 1436 1436 1437 1438 1440 1442 1444 1447 1450 1452 1455 1458 1461 1464 1467 1469 1471 1473 1474 1475 1475 1475 1475 1474 1472 1471 1470 1468 1465 1462 1458 1456 1453 1450 1447 1444 1441 1438 1434 1430 1427 1425
1431 1432 1433 1434 1435 1436 1438 1440 1443 1445 1448 1450 1453 1456 1458 1461 1463 1465 1467 1468 1469 1469 1468 1468 1467 1465 1464 1463 1460 1458 1454 1450 1447 1444 1441 1438 1435 1432 1430 1426 1421 1418 1415
1427 1428 1429 1430 1431 1433 1435 1437 1439 1442 1444 1446 1449 1451 1454 1456 1458 1459 1461 1462 1462 1462 1462 1460 1459 1458 1456 1455 1452 1450 1446 1442 1438 1435 1432 1429 1426 1423 1421 1418 1414 1409 1407
1424 1426 1427 1428 1429 1431 1433 1435 1437 1439 1441 1443 1445 1447 1449 1451 1453 1454 1455 1456 1456 1455 1454 1453 1452 1450 1448 1446 1444 1441 1438 1434 1430 1426 1423 1420 1417 1414 1412 1409 1406 1402 1399
1422 1424 1425 1426 1428 1430 1431 1433 1434 1436 1438 1439 1441 1443 1444 1446 1447 1448 1449 1449 1449 1448 1447 1445 1443 1441 1439 1437 1435 1433 1430 1426 1422 1417 1414 1411 1408 1405 1402 1400 1396 1394 1391
1421 1422 1424 1425 1427 1428 1430 1431 1432 1434 1435 1436 1437 1439 1440 1441 1442 1443 1443 1443 1442 1441 1439 1437 1435 1433 1431 1428 1426 1423 1420 1417 1413 1408 1405 1402 1399 1396 1392 1390 1387 1385 1382
1419 1421 1422 1424 1425 1426 1428 1429 1430 1431 1432 1433 1434 1435 1435 1436 1436 1436 1436 1436 1435 1433 1432 1429 1427 1424 1421 1419 1417 1414 1410 1407 1404 1400 1396 1392 1389 1386 1383 1380 1378 1375 1373
1417 1419 1421 1422 1423 1424 1425 1427 1428 1428 1429 1430 1430 1431 1431 1431 1430 1430 1429 1428 1427 1426 1424 1421 1419 1416 1412 1410 1409 1405 1401 1398 1395 1391 1387 1383 1380 1376 1374 1371 1369 1367 1365
1415 1417 1418 1420 1421 1422 1423 1424 1425 1425 1426 1426 1426 1426 1426 1425 1424 1423 1422 1420 1419 1417 1415 1413 1410 1406 1404 1401 1398 1395 1392 1389 1386 1383 1378 1374 1371 1368 1365 1363 1361 1359 1357